Weather History for Wichita, KS

Change the Weather History Date:

Tuesday, March 4, 2014

  Actual Average Record
Temperature  
Mean Temperature 22 °F 43 °F  
Max Temperature 36 °F 54 °F 82 °F (1910)
Min Temperature 8 °F 31 °F 1 °F (1960)
Degree Days  
Heating Degree Days 43 22  
Month to date heating degree days 196 91  
Since 1 July heating degree days 4115 3731  
Cooling Degree Days 0 0  
Month to date cooling degree days 0 0  
Year to date cooling degree days 0 0  
Moisture  
Dew Point 13 °F    
Average Humidity 65    
Maximum Humidity 72    
Minimum Humidity 58    
Precipitation  
Precipitation 0.00 in 0.07 in 2.26 in (2004)
Month to date precipitation 0.22 0.26  
Year to date precipitation 1.21 2.27  
Snow  
Snow 0.00 in 0.10 in 3.00 in (1915)
Month to date snowfall 3.2 0.3  
Since 1 July snowfall 22.7 12.7  
Snow Depth 2.00 in    
Sea Level Pressure  
Sea Level Pressure 30.11 in    
Wind  
Wind Speed 10 mph (South)    
Max Wind Speed 18 mph    
Max Gust Speed 21 mph    
Visibility 10 miles    
Events      
T = Trace of Precipitation, MM = Missing Value Source: NWS Daily Summary

Daily Weather History Graph

Daily Weather History Graph

Search for Another Location

Airport:

Trip Planner

Search our weather history database for the weather conditions in past years. The results will help you decide how hot, cold, wet, or windy it might be!

Date:

Astronomy

Mar. 04, 2014 Rise Set
Actual Time 6:56 AM CST 6:26 PM CST
Civil Twilight 6:30 AM CST 6:52 PM CST
Nautical Twilight 6:00 AM CST 7:23 PM CST
Astronomical Twilight 5:30 AM CST 7:53 PM CST
Moon 8:48 AM CST (3/4) 10:29 PM CST (3/4)
Length of Visible Light 12h 22m
Length of Day
11h 29m
Waxing Crescent, 15% of the Moon is Illuminated
Mar 4
Waxing Crescent
Mar 8
First Quarter
Mar 16
Full
Mar 23
Last Quarter
Mar 30
New

Hourly Weather History & Observations

Time (CST) Temp. Windchill Dew Point Humidity Pressure Visibility Wind Dir Wind Speed Gust Speed Precip Events Conditions
12:53 AM 10.0 °F -1.9 °F -2.0 °F 58% 30.26 in 10.0 mi South 8.1 mph - N/A   Clear
1:53 AM 9.0 °F -2.2 °F -2.0 °F 61% 30.26 in 10.0 mi SSW 6.9 mph - N/A   Clear
2:53 AM 9.0 °F -3.2 °F -2.0 °F 61% 30.24 in 10.0 mi SSW 8.1 mph - N/A   Partly Cloudy
3:53 AM 8.1 °F -6.2 °F -2.0 °F 64% 30.20 in 10.0 mi South 10.4 mph - N/A   Clear
4:53 AM 8.1 °F -3.2 °F -0.9 °F 67% 30.19 in 10.0 mi South 6.9 mph - N/A   Clear
5:53 AM 9.0 °F -6.6 °F -0.9 °F 64% 30.17 in 10.0 mi South 12.7 mph - N/A   Partly Cloudy
6:53 AM 10.0 °F - 1.0 °F 67% 30.17 in 10.0 mi Calm Calm - N/A   Scattered Clouds
7:53 AM 12.9 °F 2.6 °F 1.9 °F 62% 30.17 in 10.0 mi SSE 6.9 mph - N/A   Scattered Clouds
8:53 AM 16.0 °F 4.4 °F 6.1 °F 65% 30.18 in 10.0 mi SSE 9.2 mph - N/A   Partly Cloudy
9:53 AM 19.0 °F 7.5 °F 9.0 °F 65% 30.17 in 10.0 mi SSE 10.4 mph - N/A   Partly Cloudy
10:53 AM 24.1 °F 13.7 °F 14.0 °F 65% 30.14 in 10.0 mi SSE 10.4 mph - N/A   Partly Cloudy
11:53 AM 28.0 °F 16.5 °F 16.0 °F 61% 30.12 in 10.0 mi South 15.0 mph - N/A   Partly Cloudy
12:53 PM 30.0 °F 19.5 °F 19.0 °F 64% 30.11 in 10.0 mi South 13.8 mph - N/A   Scattered Clouds
1:53 PM 32.0 °F 22.5 °F 19.9 °F 61% 30.08 in 10.0 mi South 12.7 mph - N/A   Mostly Cloudy
2:53 PM 34.0 °F 23.4 °F 21.9 °F 61% 30.04 in 10.0 mi South 17.3 mph - N/A   Scattered Clouds
3:53 PM 35.1 °F 25.5 °F 23.0 °F 61% 30.03 in 10.0 mi SSE 15.0 mph - N/A   Mostly Cloudy
4:53 PM 36.0 °F 27.5 °F 24.1 °F 62% 30.02 in 10.0 mi SSE 12.7 mph - N/A   Mostly Cloudy
5:53 PM 35.1 °F 27.9 °F 24.1 °F 64% 30.01 in 10.0 mi South 9.2 mph - N/A   Mostly Cloudy
6:53 PM 33.1 °F 27.7 °F 24.1 °F 70% 30.03 in 10.0 mi SSW 5.8 mph - N/A   Mostly Cloudy
7:53 PM 33.1 °F 26.1 °F 25.0 °F 72% 30.02 in 10.0 mi South 8.1 mph - N/A   Mostly Cloudy
8:53 PM 33.1 °F 26.1 °F 24.1 °F 70% 30.01 in 10.0 mi SSE 8.1 mph - N/A   Mostly Cloudy
9:53 PM 30.9 °F 23.5 °F 23.0 °F 72% 30.01 in 10.0 mi South 8.1 mph - N/A   Mostly Cloudy
10:53 PM 30.9 °F 22.8 °F 23.0 °F 72% 30.01 in 10.0 mi SSE 9.2 mph - N/A   Scattered Clouds
11:53 PM 30.9 °F 22.8 °F 24.1 °F 76% 30.01 in 10.0 mi SSE 9.2 mph - N/A   Mostly Cloudy